WXM80 ListenWXM80 Stop

You find our weather info also at:

UK Metoffice

WeatherCloud

Weather Underground

Northeastern Weather Network

AWEKAS

Citizen Weather Observer Program (CWOP)

HAMweather, WeatherForYou, PWS Weather


Weather Underground History page Text

Daily Summary for January 10, 2018 Units:  English    Metric   Both
« Previous Day
Next Day »
Daily Weekly Monthly Yearly Custom
  High: Low: Average:
Temperature: 37.9 °F 22.5 °F 34.4 °F
Dew Point: 34.6 °F 18.1 °F 27.6 °F
Humidity: 89 % 68 % 76 %
Wind Speed: 4.3 mph 0.0 mph 1.2 mph
Wind Gust: 7.0 mph - -
Wind:- - ESE
Pressure: 30.52 in 30.15 in -
Precipitation: 0.00 in    
Historical Graphs
 
 
Tabular Data for January 10, 2018
Time Temperature Dew Point Pressure Wind Wind Speed Wind Gust Humidity Rainfall Rate (Hourly)
00:15 31.7 °F 25.0 °F 30.39 in NNE 1.2 mph 3.5 mph 76 % 0.00 in
00:41 31.5 °F 24.5 °F 30.15 in North 1.2 mph 5.0 mph 75 % 0.00 in
00:47 31.5 °F 24.5 °F 30.41 in North 1.1 mph 3.5 mph 75 % 0.00 in
01:04 31.4 °F 24.4 °F 30.41 in North 2.1 mph 3.5 mph 75 % 0.00 in
02:31 30.9 °F 23.3 °F 30.43 in NNE 1.9 mph 5.0 mph 73 % 0.00 in
02:38 30.9 °F 23.3 °F 30.43 in North 2.2 mph 4.0 mph 73 % 0.00 in
03:04 30.6 °F 23.0 °F 30.18 in NNE 0.4 mph 4.0 mph 73 % 0.00 in
03:25 30.1 °F 22.5 °F 30.44 in North 1.0 mph 3.5 mph 73 % 0.00 in
03:32 30.0 °F 22.4 °F 30.44 in North 0.2 mph 3.5 mph 73 % 0.00 in
03:40 29.9 °F 22.3 °F 30.44 in Calm   2.3 mph 73 % 0.00 in
04:15 28.8 °F 21.9 °F 30.46 in Calm     75 % 0.00 in
04:46 27.6 °F 21.0 °F 30.46 in Calm     76 % 0.00 in
05:16 26.0 °F 20.1 °F 30.47 in Calm   1.0 mph 78 % 0.00 in
06:32 23.0 °F 18.3 °F 30.48 in Calm     82 % 0.00 in
06:44 22.7 °F 18.3 °F 30.23 in Calm     83 % 0.00 in
06:50 22.6 °F 18.2 °F 30.48 in NW 0.9 mph 1.2 mph 83 % 0.00 in
06:52 22.5 °F 18.1 °F 30.48 in NW 0.5 mph 1.2 mph 83 % 0.00 in
08:02 22.6 °F 19.6 °F 30.24 in NW 0.8 mph 2.3 mph 88 % 0.00 in
08:44 26.6 °F 23.8 °F 30.25 in NNE 1.6 mph 5.0 mph 89 % 0.00 in
08:50 27.3 °F 23.9 °F 30.26 in NE 2.8 mph 4.0 mph 87 % 0.00 in
09:02 29.0 °F 24.5 °F 30.52 in ENE 3.8 mph 5.0 mph 83 % 0.00 in
09:19 31.3 °F 24.9 °F 30.52 in ENE 2.7 mph 6.9 mph 77 % 0.00 in
09:24 31.9 °F 24.9 °F 30.26 in ENE 2.7 mph 4.6 mph 75 % 0.00 in
09:27 32.1 °F 24.4 °F 30.27 in ENE 2.4 mph 4.6 mph 73 % 0.00 in
09:29 32.4 °F 24.7 °F 30.51 in ENE 1.4 mph 3.0 mph 73 % 0.00 in
09:34 32.8 °F 24.8 °F 30.52 in ENE 2.1 mph 4.6 mph 72 % 0.00 in
09:44 33.4 °F 25.0 °F 30.51 in ENE 2.8 mph 3.5 mph 71 % 0.00 in
09:49 33.8 °F 25.4 °F 30.52 in NE 2.7 mph 4.0 mph 71 % 0.00 in
09:59 34.4 °F 25.3 °F 30.52 in ENE 2.1 mph 3.5 mph 69 % 0.00 in
10:08 34.9 °F 25.8 °F 30.51 in NE 2.0 mph 4.0 mph 69 % 0.00 in
10:13 35.1 °F 25.9 °F 30.52 in ENE 4.3 mph 7.0 mph 69 % 0.00 in
10:19 35.2 °F 26.0 °F 30.52 in ENE 4.0 mph 5.0 mph 69 % 0.00 in
10:24 35.3 °F 26.1 °F 30.51 in NE 1.3 mph 3.5 mph 69 % 0.00 in
10:29 35.6 °F 26.1 °F 30.51 in ENE 3.5 mph 4.6 mph 68 % 0.00 in
10:43 36.0 °F 26.5 °F 30.26 in NE 0.1 mph 3.5 mph 68 % 0.00 in
10:56 36.1 °F 26.6 °F 30.50 in ENE 1.3 mph 3.5 mph 68 % 0.00 in
11:01 36.1 °F 26.9 °F 30.25 in NE 1.6 mph 3.5 mph 69 % 0.00 in
11:06 36.2 °F 27.0 °F 30.25 in NNE 2.8 mph 3.5 mph 69 % 0.00 in
11:16 36.4 °F 27.2 °F 30.50 in NNE 2.0 mph 3.5 mph 69 % 0.00 in
11:24 36.3 °F 26.7 °F 30.25 in NW 1.1 mph 3.5 mph 68 % 0.00 in
11:34 36.0 °F 26.5 °F 30.50 in North 2.1 mph 3.5 mph 68 % 0.00 in
11:39 35.8 °F 26.6 °F 30.25 in North 2.5 mph 3.5 mph 69 % 0.00 in
11:44 35.8 °F 27.0 °F 30.49 in NNE 3.0 mph 3.5 mph 70 % 0.00 in
11:49 35.8 °F 27.0 °F 30.49 in North 2.5 mph 3.5 mph 70 % 0.00 in
11:54 35.7 °F 27.2 °F 30.49 in North 2.0 mph 3.5 mph 71 % 0.00 in
11:59 35.6 °F 27.1 °F 30.49 in North 0.7 mph 3.5 mph 71 % 0.00 in
12:04 35.6 °F 27.1 °F 30.24 in North 1.7 mph 3.5 mph 71 % 0.00 in
12:14 35.5 °F 27.4 °F 30.48 in North 1.2 mph 3.5 mph 72 % 0.00 in
12:20 35.6 °F 27.5 °F 30.48 in NNE 2.4 mph 3.5 mph 72 % 0.00 in
12:25 35.8 °F 27.7 °F 30.23 in NNE 3.2 mph 4.6 mph 72 % 0.00 in
12:31 36.0 °F 27.9 °F 30.23 in North 1.0 mph 4.0 mph 72 % 0.00 in
12:37 36.7 °F 28.5 °F 30.22 in NNE 2.4 mph 4.6 mph 72 % 0.00 in
12:44 37.1 °F 28.2 °F 30.47 in North 2.0 mph 3.5 mph 70 % 0.00 in
12:49 37.3 °F 28.4 °F 30.22 in North 3.4 mph 5.8 mph 70 % 0.00 in
12:58 37.4 °F 28.2 °F 30.47 in NNE 2.0 mph 3.5 mph 69 % 0.00 in
13:10 37.7 °F 28.4 °F 30.46 in NNE 2.1 mph 3.5 mph 69 % 0.00 in
13:19 37.9 °F 28.6 °F 30.46 in NNE 3.3 mph 4.0 mph 69 % 0.00 in
13:24 37.9 °F 28.3 °F 30.46 in NNE 2.5 mph 4.6 mph 68 % 0.00 in
13:33 37.8 °F 28.2 °F 30.21 in North 2.5 mph 3.5 mph 68 % 0.00 in
13:39 37.8 °F 28.5 °F 30.45 in NNE 2.0 mph 4.6 mph 69 % 0.00 in
13:48 37.9 °F 28.3 °F 30.45 in ENE 2.0 mph 4.6 mph 68 % 0.00 in
13:56 37.9 °F 28.3 °F 30.45 in NNE 4.3 mph 6.0 mph 68 % 0.00 in
14:02 37.7 °F 28.4 °F 30.45 in NE 2.0 mph 2.3 mph 69 % 0.00 in
14:11 37.3 °F 28.1 °F 30.44 in NNE 2.8 mph 4.0 mph 69 % 0.00 in
14:19 37.2 °F 28.0 °F 30.20 in NNE 0.3 mph 1.2 mph 69 % 0.00 in
14:25 37.1 °F 27.9 °F 30.20 in Calm   2.3 mph 69 % 0.00 in
14:35 36.7 °F 27.1 °F 30.46 in NNE 0.5 mph 2.3 mph 68 % 0.00 in
14:45 36.3 °F 27.1 °F 30.46 in NNE 1.6 mph 3.5 mph 69 % 0.00 in
14:52 36.0 °F 27.5 °F 30.46 in NNE 0.4 mph 2.3 mph 71 % 0.00 in
14:58 35.7 °F 27.2 °F 30.46 in NE 0.3 mph 2.3 mph 71 % 0.00 in
15:03 35.6 °F 27.1 °F 30.46 in NNE 0.1 mph 1.0 mph 71 % 0.00 in
15:08 35.3 °F 26.8 °F 30.46 in NNE 0.2 mph 1.2 mph 71 % 0.00 in
15:14 35.2 °F 26.7 °F 30.20 in Calm     71 % 0.00 in
15:23 35.0 °F 26.2 °F 30.46 in Calm   1.2 mph 70 % 0.00 in
15:28 35.0 °F 26.5 °F 30.46 in NE 0.3 mph 2.3 mph 71 % 0.00 in
15:33 34.9 °F 26.4 °F 30.21 in NE 0.5 mph 1.2 mph 71 % 0.00 in
15:42 34.8 °F 26.4 °F 30.46 in NE 1.3 mph 2.3 mph 71 % 0.00 in
15:54 34.6 °F 27.2 °F 30.46 in Calm     74 % 0.00 in
15:59 34.6 °F 27.2 °F 30.46 in NE 0.3 mph 2.3 mph 74 % 0.00 in
16:06 34.6 °F 27.2 °F 30.20 in NE 0.8 mph 2.3 mph 74 % 0.00 in
16:15 34.4 °F 27.3 °F 30.46 in Calm     75 % 0.00 in
16:22 34.2 °F 27.1 °F 30.45 in Calm     75 % 0.00 in
16:27 34.2 °F 27.4 °F 30.19 in ESE 1.2 mph 2.3 mph 76 % 0.00 in
16:29 34.1 °F 27.3 °F 30.19 in Calm   3.5 mph 76 % 0.00 in
16:37 33.9 °F 27.1 °F 30.45 in South 1.7 mph 4.6 mph 76 % 0.00 in
16:42 33.8 °F 27.4 °F 30.44 in SSW 0.6 mph 3.5 mph 77 % 0.00 in
16:48 33.8 °F 27.7 °F 30.20 in South 0.1 mph 1.0 mph 78 % 0.00 in
17:10 34.0 °F 28.2 °F 30.46 in Calm     79 % 0.00 in
17:21 34.4 °F 28.2 °F 30.21 in South 2.0 mph 5.0 mph 78 % 0.00 in
17:28 34.8 °F 28.3 °F 30.46 in South 0.5 mph 2.3 mph 77 % 0.00 in
17:33 35.0 °F 28.5 °F 30.46 in SSW 1.8 mph 7.0 mph 77 % 0.00 in
17:42 35.2 °F 28.4 °F 30.46 in South 1.7 mph 3.5 mph 76 % 0.00 in
17:47 35.3 °F 28.5 °F 30.46 in South 0.2 mph 2.3 mph 76 % 0.00 in
18:01 35.4 °F 28.6 °F 30.21 in South 0.9 mph 3.5 mph 76 % 0.00 in
18:06 35.4 °F 28.3 °F 30.46 in SSE 0.2 mph 5.8 mph 75 % 0.00 in
18:12 35.4 °F 28.3 °F 30.46 in Calm   1.2 mph 75 % 0.00 in
18:18 35.3 °F 28.2 °F 30.20 in South 0.9 mph 3.5 mph 75 % 0.00 in
18:25 35.0 °F 27.9 °F 30.46 in South 2.3 mph 3.5 mph 75 % 0.00 in
18:34 34.7 °F 27.9 °F 30.46 in South 0.8 mph 3.5 mph 76 % 0.00 in
18:39 34.6 °F 27.8 °F 30.46 in Calm   2.3 mph 76 % 0.00 in
18:49 34.4 °F 27.9 °F 30.46 in Calm     77 % 0.00 in
18:56 34.2 °F 27.7 °F 30.46 in SSE 2.0 mph 3.5 mph 77 % 0.00 in
19:12 34.1 °F 28.0 °F 30.21 in Calm     78 % 0.00 in
19:25 34.0 °F 28.2 °F 30.46 in Calm   1.2 mph 79 % 0.00 in
19:30 34.0 °F 28.2 °F 30.46 in SSE 0.2 mph 2.3 mph 79 % 0.00 in
19:36 34.0 °F 28.2 °F 30.47 in SSE 0.5 mph 1.2 mph 79 % 0.00 in
19:42 34.1 °F 28.3 °F 30.47 in SSE 1.6 mph 2.3 mph 79 % 0.00 in
19:47 34.1 °F 28.6 °F 30.47 in Calm   2.3 mph 80 % 0.00 in
19:53 34.1 °F 28.6 °F 30.47 in Calm   1.2 mph 80 % 0.00 in
20:01 34.2 °F 28.7 °F 30.48 in Calm   1.2 mph 80 % 0.00 in
20:07 34.3 °F 29.1 °F 30.22 in Calm   1.2 mph 81 % 0.00 in
20:08 34.4 °F 29.2 °F 30.22 in SSE 1.1 mph 2.3 mph 81 % 0.00 in
20:10 34.4 °F 29.2 °F 30.22 in SSE 1.5 mph 2.3 mph 81 % 0.00 in
20:11 34.4 °F 29.2 °F 30.22 in SSE 2.0 mph 4.0 mph 81 % 0.00 in
20:16 34.6 °F 29.4 °F 30.46 in SSE 0.9 mph 2.3 mph 81 % 0.00 in
20:23 34.7 °F 29.5 °F 30.20 in SE 1.2 mph 3.5 mph 81 % 0.00 in
20:46 35.2 °F 30.3 °F 30.44 in South 1.0 mph 5.0 mph 82 % 0.00 in
20:51 35.3 °F 30.4 °F 30.44 in Calm   2.0 mph 82 % 0.00 in
21:00 35.4 °F 30.5 °F 30.44 in South 1.5 mph 3.5 mph 82 % 0.00 in
21:24 35.6 °F 31.2 °F 30.19 in South 0.9 mph 2.3 mph 84 % 0.00 in
21:29 35.6 °F 31.2 °F 30.19 in South 1.0 mph 3.5 mph 84 % 0.00 in
21:35 35.7 °F 31.6 °F 30.44 in South 1.7 mph 3.5 mph 85 % 0.00 in
21:51 35.9 °F 31.8 °F 30.44 in SSW 2.0 mph 3.5 mph 85 % 0.00 in
21:59 36.1 °F 32.3 °F 30.44 in Calm   1.2 mph 86 % 0.00 in
22:08 36.2 °F 32.4 °F 30.44 in Calm   1.2 mph 86 % 0.00 in
22:25 36.5 °F 33.0 °F 30.18 in Calm   1.2 mph 87 % 0.00 in
22:33 36.8 °F 33.6 °F 30.43 in South 1.8 mph 3.5 mph 88 % 0.00 in
22:39 37.0 °F 33.8 °F 30.43 in South 1.4 mph 3.5 mph 88 % 0.00 in
22:44 37.1 °F 33.9 °F 30.43 in SW 0.3 mph 2.3 mph 88 % 0.00 in
22:49 37.2 °F 34.0 °F 30.43 in Calm   1.2 mph 88 % 0.00 in
22:57 37.4 °F 34.2 °F 30.43 in Calm     88 % 0.00 in
23:03 37.6 °F 34.4 °F 30.17 in Calm     88 % 0.00 in
23:08 37.7 °F 34.5 °F 30.43 in Calm     88 % 0.00 in
23:15 37.8 °F 34.6 °F 30.17 in Calm     88 % 0.00 in
23:25 37.8 °F 34.3 °F 30.42 in Calm     87 % 0.00 in
23:30 37.7 °F 34.2 °F 30.17 in Calm     87 % 0.00 in
23:35 37.7 °F 34.2 °F 30.41 in Calm     87 % 0.00 in
23:42 37.6 °F 34.1 °F 30.42 in Calm     87 % 0.00 in
23:47 37.5 °F 34.0 °F 30.41 in Calm     87 % 0.00 in
23:57 37.4 °F 34.2 °F 30.16 in SW 0.8 mph 2.3 mph 88 % 0.00 in
Crab Meadow Weather
Compliments of Weather Underground - 2 mb

Script developed by  Jim McMurry - jmcmurry@mwt.net Adapted for the template by  Wim van der Kuil - Leuven-Template.eu

Extremes: The most widespread U.S. cold wave was in February of 1899. It was so cold that the Mississippi River froze over its entire length, with ice as thick as two inches even in New Orleans.